Weather History for Park Rapids, MN

Change the Weather History Date:

Monday, July 16, 2012

  Actual Average Record
Temperature  
Mean Temperature 80 °F -  
Max Temperature 91 °F 82 °F 97 °F (2006)
Min Temperature 69 °F 57 °F 41 °F (1958)
Cooling Degree Days 15    
Growing Degree Days 30 (Base 50)    
Moisture  
Dew Point 67 °F    
Average Humidity 67    
Maximum Humidity 81    
Minimum Humidity 50    
Precipitation  
Precipitation 0.02 in - - ()
Sea Level Pressure  
Sea Level Pressure 29.73 in    
Wind  
Wind Speed 14 mph (WSW)    
Max Wind Speed 20 mph    
Max Gust Speed 24 mph    
Visibility 10 miles    
Events Rain    
Averages and records for this station are not official NWS values.
T = Trace of Precipitation, MM = Missing Value Source: NWS Daily Summary

Daily Weather History Graph

Daily Weather History Graph

Search for Another Location

Airport:

Trip Planner

Search our weather history database for the weather conditions in past years. The results will help you decide how hot, cold, wet, or windy it might be!

Date:

Astronomy

Jul. 16, 2012 Rise Set
Actual Time 5:42 AM CDT 9:09 PM CDT
Civil Twilight 5:04 AM CDT 9:47 PM CDT
Nautical Twilight 4:14 AM CDT 10:37 PM CDT
Astronomical Twilight 3:09 AM CDT 11:41 PM CDT
Moon 3:26 AM CDT (7/16) 7:15 PM CDT (7/16)
Length of Visible Light 16h 42m
Length of Day
15h 27m
Waning Crescent, 6% of the Moon is Illuminated
Jul 16
Waning Crescent
Jul 18
New
Jul 26
First Quarter
Aug 1
Full
Aug 9
Last Quarter

Hourly Weather History & Observations

Time (CDT) Temp. Heat Index Dew Point Humidity Pressure Visibility Wind Dir Wind Speed Gust Speed Precip Events Conditions
12:53 AM 75.9 °F - 66.0 °F 71% 29.82 in 9.0 mi SSE 16.1 mph - N/A   Clear
1:53 AM 77.0 °F - 64.9 °F 66% 29.79 in 10.0 mi SSE 19.6 mph 24.2 mph N/A   Mostly Cloudy
2:53 AM 73.9 °F - 66.9 °F 79% 29.77 in 10.0 mi SSE 15.0 mph - 0.01 in Rain Light Rain
3:53 AM 73.9 °F - 66.9 °F 79% 29.74 in 10.0 mi South 13.8 mph - 0.00 in   Clear
4:53 AM 73.9 °F - 66.9 °F 79% 29.70 in 10.0 mi SSE 17.3 mph - 0.01 in Rain Light Rain
5:53 AM 73.9 °F - 66.9 °F 79% 29.69 in 10.0 mi South 11.5 mph - 0.00 in   Clear
6:53 AM 75.0 °F - 66.9 °F 76% 29.69 in 10.0 mi South 9.2 mph - N/A   Clear
7:53 AM 77.0 °F - 66.0 °F 69% 29.68 in 10.0 mi SSW 10.4 mph - N/A   Clear
8:53 AM 78.1 °F - 64.9 °F 64% 29.68 in 10.0 mi SSW 11.5 mph - N/A   Clear
9:53 AM 82.0 °F 84.5 °F 66.9 °F 60% 29.68 in 10.0 mi SW 11.5 mph - N/A   Clear
10:53 AM 82.0 °F 84.9 °F 68.0 °F 62% 29.69 in 10.0 mi SW 9.2 mph - N/A   Clear
11:53 AM 86.0 °F 90.7 °F 70.0 °F 59% 29.68 in 10.0 mi WSW 13.8 mph - N/A   Clear
12:53 PM 89.1 °F 95.0 °F 71.1 °F 55% 29.68 in 10.0 mi WSW 12.7 mph - N/A   Clear
1:53 PM 91.0 °F 97.6 °F 71.1 °F 52% 29.68 in 10.0 mi West 16.1 mph - N/A   Clear
2:53 PM 91.9 °F 99.5 °F 72.0 °F 52% 29.68 in 10.0 mi WNW 16.1 mph 21.9 mph N/A   Clear
3:53 PM 91.0 °F 96.6 °F 70.0 °F 50% 29.70 in 10.0 mi WNW 17.3 mph - N/A   Clear
4:53 PM 90.0 °F 96.4 °F 71.1 °F 54% 29.70 in 10.0 mi WNW 15.0 mph - N/A   Clear
5:53 PM 89.1 °F 94.1 °F 70.0 °F 53% 29.71 in 10.0 mi NW 12.7 mph - N/A   Clear
6:53 PM 86.0 °F 90.7 °F 70.0 °F 59% 29.71 in 10.0 mi NW 12.7 mph - N/A   Clear
7:53 PM 82.0 °F 85.9 °F 70.0 °F 67% 29.73 in 10.0 mi NNW 13.8 mph - N/A   Clear
8:53 PM 75.9 °F - 66.9 °F 74% 29.76 in 10.0 mi NNW 13.8 mph - N/A   Clear
9:53 PM 72.0 °F - 64.0 °F 76% 29.79 in 10.0 mi NNW 6.9 mph - N/A   Clear
10:53 PM 70.0 °F - 64.0 °F 81% 29.81 in 10.0 mi NNW 6.9 mph - N/A   Clear
11:39 PM 69.8 °F - 62.6 °F 78% 29.82 in 10.0 mi North 8.1 mph - N/A   Mostly Cloudy
11:53 PM 70.0 °F - 63.0 °F 78% 29.80 in 10.0 mi North 9.2 mph - N/A   Overcast